Regional Weather Roundup
Issued by NWS

Home | Current Version | Previous Version | Graphics & Text | Print | Product List | Glossary Off
Versions: 1 2 3 4 5 6 7 8 9 10 11 12 13 14 15 16 17 18 19 20 21 22 23 24 25 26 27 28 29 30 31 32 33 34 35 36 37 38 39 40 41 42 43 44 45 46 47 48 49 50

000
ASUS43 KTOP 260308
RWRKS

WEATHER ROUNDUP FOR KANSAS
NATIONAL WEATHER SERVICE GOODLAND KS
1000 PM CDT SAT APR 25 2015

NOTE:  "FAIR" INDICATES FEW OR NO CLOUDS BELOW 12,000 FEET WITH NO
SIGNIFICANT WEATHER AND/OR OBSTRUCTIONS TO VISIBILITY.

KSZ001>006-013>018-027>032-041>047-260400-
NORTHWEST KANSAS

CITY           SKY/WX    TMP DP  RH WIND       PRES   REMARKS
GOODLAND       CLEAR     56  52  86 E18       29.75R
HAYS           CLOUDY    54  45  71 E16       29.79R
HILL CITY      MOCLDY    53  49  86 E13       29.79R
RUSSELL        CLOUDY    52  49  89 NE15      29.78R
$$

KSZ061>065-074>080-084>089-260400-
SOUTHWEST KANSAS

CITY           SKY/WX    TMP DP  RH WIND       PRES   REMARKS
DODGE CITY     CLEAR     58  51  78 E13       29.73R
ELKHART          N/A     60  34  37 E10         N/A
GARDEN CITY    CLEAR     60  51  72 E18       29.72R
GREAT BEND     MOCLDY    57  52  82 E15       29.76R
LIBERAL        PTCLDY    66  37  34 E13       29.69S
$$

KSZ066>073-081>083-090>101-260400-
SOUTHEAST KANSAS

CITY           SKY/WX    TMP DP  RH WIND       PRES   REMARKS
CHANUTE        CLOUDY    58  53  84 N10       29.75R
COFFEYVILLE    CLEAR     60  55  83 N10       29.72R
HUTCHINSON     CLOUDY    58  52  80 NE12G20   29.75R
MEDICINE LODGE   N/A     63  54  72 NE13G22   29.70R
NEWTON         CLOUDY    55  48  76 NE12      29.78R
PARSONS        CLEAR     59  55  87 N6        29.74R
WICHITA INTL   CLEAR     60  53  77 NE17      29.74R
WICHITA JABRA  CLEAR     56  52  86 NE9       29.75R
WINFIELD       CLEAR     62  54  74 NE13      29.73R
$$

KSZ007>012-019>026-033>040-048>060-102>105-260400-
NORTHEAST KANSAS

CITY           SKY/WX    TMP DP  RH WIND       PRES   REMARKS
CONCORDIA      CLOUDY    50  47  89 NE13      29.81R
EMPORIA        CLOUDY    53  49  86 N14       29.77R
LAWRENCE       CLOUDY    50  46  86 N9        29.80R
MANHATTAN      CLOUDY    51  48  89 NE15      29.80R
MARYSVILLE     CLOUDY    48  45  87 NE9       29.82R
OLATHE IND     CLOUDY    49  47  93 N10       29.79R
OLATHE EXE     CLOUDY    50  48  93 N12       29.77R
SALINA         CLOUDY    54  48  80 NE12      29.79R
TOPEKA BILLARD CLOUDY    50  47  89 N7        29.81R
TOPEKA FORBES  CLOUDY    51  47  86 N10       29.79R FOG
$$


USA.gov is the U.S. government's official web portal to all federal, state and local government web resources and services.